2023/03/06 00:00:00,53.7,-1.9
2023/03/06 00:10:00,53.6,-1.9
2023/03/06 00:20:00,53.7,-2.1
2023/03/06 00:30:00,53.7,-2.0
2023/03/06 00:40:00,53.7,-1.9
2023/03/06 00:50:00,53.7,-2.0
2023/03/06 01:00:00,53.8,-2.0
2023/03/06 01:10:00,53.9,-2.0
2023/03/06 01:20:00,53.9,-1.9
2023/03/06 01:30:00,53.9,-1.8
2023/03/06 01:40:00,53.8,-2.1
2023/03/06 01:50:00,53.8,-1.9
2023/03/06 02:00:00,53.9,-2.3
2023/03/06 02:10:00,54.0,-1.8
2023/03/06 02:20:00,54.0,-1.6
2023/03/06 02:30:00,54.0,-1.8
2023/03/06 02:40:00,53.9,-1.8
2023/03/06 02:50:00,54.0,-1.7
2023/03/06 03:00:00,54.0,-1.6
2023/03/06 03:10:00,54.0,-2.0
2023/03/06 03:20:00,54.0,-1.8
2023/03/06 03:30:00,54.0,-1.7
2023/03/06 03:40:00,54.0,-1.6
2023/03/06 03:50:00,53.9,-1.9
2023/03/06 04:00:00,54.0,-1.8
2023/03/06 04:10:00,53.9,-2.0
2023/03/06 04:20:00,53.9,-1.8
2023/03/06 04:30:00,54.0,-2.1
2023/03/06 04:40:00,53.9,-2.2
2023/03/06 04:50:00,53.9,-2.0
2023/03/06 05:00:00,54.0,-1.9
2023/03/06 05:10:00,53.9,-2.1
2023/03/06 05:20:00,53.9,-2.2
2023/03/06 05:30:00,53.9,-2.2
2023/03/06 05:40:00,53.9,-2.5
2023/03/06 05:50:00,53.9,-2.5
2023/03/06 06:00:00,53.9,-2.4
2023/03/06 06:10:00,53.9,-2.3
2023/03/06 06:20:00,53.9,-2.3
2023/03/06 06:30:00,53.9,-2.4
2023/03/06 06:40:00,54.0,-2.5
2023/03/06 06:50:00,53.9,-2.4
2023/03/06 07:00:00,53.9,-2.2
2023/03/06 07:10:00,53.9,-2.1
2023/03/06 07:20:00,54.0,-1.9
2023/03/06 07:30:00,54.0,-1.4
2023/03/06 07:40:00,54.0,-1.0
2023/03/06 07:50:00,53.9,-0.2
2023/03/06 08:00:00,53.8, 0.7
2023/03/06 08:10:00,53.9, 1.0
2023/03/06 08:20:00,53.6, 1.2
2023/03/06 08:30:00,53.6, 3.4
2023/03/06 08:40:00,53.5, 3.4
2023/03/06 08:50:00,53.3, 4.3
2023/03/06 09:00:00,53.4, 5.3
2023/03/06 09:10:00,53.4, 6.1
2023/03/06 09:20:00,53.3, 8.0
2023/03/06 09:30:00,53.2, 9.5
2023/03/06 09:40:00,53.3,10.9
2023/03/06 09:50:00,53.1,12.2
2023/03/06 10:00:00,52.8,11.5
2023/03/06 10:10:00,52.2,11.3
2023/03/06 10:20:00,52.2,10.7
2023/03/06 10:30:00,52.0,10.6
2023/03/06 10:40:00,52.0,11.2
2023/03/06 10:50:00,52.0,12.0
2023/03/06 11:00:00,52.1,11.9
2023/03/06 11:10:00,52.2,13.0
2023/03/06 11:20:00,52.1,13.2
2023/03/06 11:30:00,52.0,14.8
2023/03/06 11:40:00,51.8,17.0
2023/03/06 11:50:00,52.0,17.1
2023/03/06 12:00:00,51.6,15.5
2023/03/06 12:10:00,51.5,16.3
2023/03/06 12:20:00,51.4,16.5
2023/03/06 12:30:00,51.0,16.5
2023/03/06 12:40:00,50.7,16.7
2023/03/06 12:50:00,50.8,16.5
2023/03/06 13:00:00,50.7,16.7
2023/03/06 13:10:00,50.5,17.9
2023/03/06 13:20:00,50.5,19.7
2023/03/06 13:30:00,50.4,18.7
2023/03/06 13:40:00,50.0,17.7
2023/03/06 13:50:00,50.0,20.7
2023/03/06 14:00:00,49.9,22.5
2023/03/06 14:10:00,49.9,22.3
2023/03/06 14:20:00,49.9,22.2
2023/03/06 14:30:00,50.0,22.9
2023/03/06 14:40:00,49.9,22.7
2023/03/06 14:50:00,49.6,21.0
2023/03/06 15:00:00,49.4,18.0
2023/03/06 15:10:00,49.5,23.2
2023/03/06 15:20:00,49.5,22.0
2023/03/06 15:30:00,49.4,21.1
2023/03/06 15:40:00,49.5,18.4
2023/03/06 15:50:00,49.5,17.9
2023/03/06 16:00:00,49.2,18.2
2023/03/06 16:10:00,49.1,18.1
2023/03/06 16:20:00,49.1,17.1
2023/03/06 16:30:00,49.1,16.9
2023/03/06 16:40:00,49.1,15.5
2023/03/06 16:50:00,49.3,13.2
2023/03/06 17:00:00,49.3,15.5
2023/03/06 17:10:00,49.3,13.4
2023/03/06 17:20:00,49.3, 9.8
2023/03/06 17:30:00,49.3, 8.1
2023/03/06 17:40:00,49.4, 6.7
2023/03/06 17:50:00,49.4, 5.4
2023/03/06 18:00:00,49.3, 4.6
2023/03/06 18:10:00,49.3, 3.9
2023/03/06 18:20:00,49.2, 3.2
2023/03/06 18:30:00,49.2, 2.6
2023/03/06 18:40:00,49.2, 2.3
2023/03/06 18:50:00,49.2, 2.1
2023/03/06 19:00:00,49.2, 1.9
2023/03/06 19:10:00,49.3, 1.5
2023/03/06 19:20:00,49.2, 1.2
2023/03/06 19:30:00,49.2, 1.0
2023/03/06 19:40:00,49.3, 0.8
2023/03/06 19:50:00,49.3, 0.6
2023/03/06 20:00:00,49.2, 0.5
2023/03/06 20:10:00,49.3, 0.4
2023/03/06 20:20:00,49.3, 0.2
2023/03/06 20:30:00,49.3,-0.1
2023/03/06 20:40:00,49.2, 0.0
2023/03/06 20:50:00,49.3,-0.1
2023/03/06 21:00:00,49.3,-0.1
2023/03/06 21:10:00,49.3,-0.3
2023/03/06 21:20:00,49.3,-0.3
2023/03/06 21:30:00,49.4,-0.1
2023/03/06 21:40:00,49.3,-0.3
2023/03/06 21:50:00,49.3,-0.5
2023/03/06 22:00:00,49.3,-1.0
2023/03/06 22:10:00,49.4,-0.7
2023/03/06 22:20:00,49.4,-0.7
2023/03/06 22:30:00,49.4,-0.7
2023/03/06 22:40:00,49.4,-0.9
2023/03/06 22:50:00,49.3,-0.8
2023/03/06 23:00:00,49.4,-0.9
2023/03/06 23:10:00,49.3,-1.0
2023/03/06 23:20:00,49.3,-1.0
2023/03/06 23:30:00,49.3,-1.3
2023/03/06 23:40:00,49.3,-1.0
2023/03/06 23:50:00,49.3,-1.1
